Jackpot Winner Domino

Ikutilah global jackpot yang tersedia di system kami, dengan system jackpot terbaru dan pertama di indonesia, anda dapat membeli jackpot dengan harga 100 rupiah saja dan menangkan hadiahnya hingga puluhan juta rupiah.

Jackpot bukanlah suatu keharusan untuk dibeli, namun kami memberikan suatu fitur tambahan untuk member tercinta dari www.ngpoker.net.

Terdapat tiga pilihan harga jackpot yang bisa anda beli yaitu :100,500 dan 1000 rupiah.

Hadiah dari Multi jackpot system www.ngpoker.net

  1. Murni Kecil x 50 harga jackpot yang anda beli.
      (contoH:anda membeli 1000 maka:1000 X 50 = 50.000)
  2. Murni Besar x 50 harga jackpot yang anda beli
      (contoH:anda membeli 1000 maka:1000 X 50 = 50.000)
  3. BALAK x 100 harga jackpot yang anda beli
      (contoH:anda membeli 1000 maka:1000 X 100 = 100.000)
  4. ENAM DEWA x 6666 harga jackpot yang anda beli
      (contoH:anda membeli 1000 maka:1000 X 6666 = 6.666.000)

Demikian adalah penjelasan dari Multi Jackpot www.ngpoker.net terima kasih dan selamat bermain salam hoki dari kami


Jackpot Winner

TOP ENAM DEWA
No.TanggalNamaPriceWin
124/01 00:16TEMPEKTUOmurni enam3,333,000
223/01 23:59TM7ZINATMJmurni enam6,666,000
323/01 23:50CROSSBACKmurni enam6,666,000
423/01 23:40RESTO23murni enam666,600
523/01 21:29PHO77murni enam6,666,000
TOP BALAK
No.TanggalNamaPriceWin
124/01 01:47ANDRE44balak50,000
224/01 01:47BANGBUDbalak100,000
324/01 01:43SAXSP3TK73balak10,000
424/01 01:36JESPER06balak10,000
524/01 01:34LA88balak100,000
LATEST JACKPOT
No.TanggalNamaPriceWin
124/01 01:48DANUR5777murni besar5,000
224/01 01:48PRADA26murni kecil5,000
324/01 01:47ANDRE44balak50,000
424/01 01:47BANGBUDbalak100,000
524/01 01:46BADASO11murni besar25,000
624/01 01:46LAMPUNG81murni kecil50,000
724/01 01:44PONEK88murni besar25,000
824/01 01:44CAIR1210murni besar25,000
924/01 01:43ANDY84murni besar25,000
1024/01 01:43KRIWOELmurni kecil50,000
1124/01 01:43SAXSP3TK73balak10,000
1224/01 01:43JANUS88murni kecil5,000
1324/01 01:43KAMSAIKmurni besar5,000
1424/01 01:41SEMENTARAmurni besar5,000
1524/01 01:41CAPIE89murni besar50,000
1624/01 01:40KITUT_JRmurni besar50,000
1724/01 01:39DEDHY93murni besar50,000
1824/01 01:39DEQUALmurni besar50,000
1924/01 01:38BNT08murni besar25,000
2024/01 01:38MOOD87murni besar25,000
2124/01 01:37RAMBEAELAHmurni besar5,000
2224/01 01:36JESPER06balak10,000
2324/01 01:36K412CH405murni besar50,000
2424/01 01:35PAPAGOOGLEmurni kecil50,000
2524/01 01:34MBJSJYmurni besar5,000
2624/01 01:34SUPRI221murni kecil25,000
2724/01 01:34SESWO123murni besar25,000
2824/01 01:34LA88balak100,000
2924/01 01:32QLESTYOQmurni besar5,000
3024/01 01:32BOTAX070balak100,000
3124/01 01:31CILIANG88murni kecil50,000
3224/01 01:31JESPER06murni besar5,000
3324/01 01:30PITEN3019balak10,000
3424/01 01:30BUENAmurni kecil25,000
3524/01 01:30TEMPEKTUOmurni besar25,000
3624/01 01:30BLACKZCXmurni kecil5,000
3724/01 01:30SETAN07murni kecil5,000
3824/01 01:30WD_ACHHbalak10,000
3924/01 01:29KIFLAN72murni kecil50,000
4024/01 01:28ANDY73murni besar50,000
4124/01 01:28EKAB474balak10,000
4224/01 01:27SESWO123murni kecil25,000
4324/01 01:27ROSSI995balak100,000
4424/01 01:25AANG44176murni kecil25,000
4524/01 01:25ERONmurni besar25,000
4624/01 01:23KRIWOELmurni kecil50,000
4724/01 01:22RR1357DSbalak50,000
4824/01 01:22KAMSAIKmurni kecil25,000
4924/01 01:22DXOSR88balak10,000
5024/01 01:22BOLANGBOYmurni besar5,000
Dewa.FM